This demonstration page uses our WeatherBlox Daily Observations layout. Learn more.

Left ArrowRight Arrow

Hourly Observations for September 22, 2018

Temp ( °F °C ) Dew Point ( °F °C ) Humidity (%) Winds ( mph kmh ) Pressure ( in mb ) Visibility ( mi km ) Precip ( " mm )
12:53 am 00:53 Clear 49 9.4 43 6.1 80 80 E 7 11 30.34 1027 10 16 0.00 0.00
1:53 am 01:53 Clear 48 8.9 43 6.1 83 83 E 6 9 30.33 1027 10 16 0.00 0.00
2:53 am 02:53 Clear 48 8.9 43 6.1 83 83 ESE 7 11 30.32 1027 10 16 0.00 0.00
3:53 am 03:53 Clear 47 8.3 42 5.6 83 83 SE 8 13 30.31 1026 10 16 0.00 0.00
4:53 am 04:53 Clear 47 8.3 43 6.1 86 86 SE 8 13 30.30 1026 10 16 0.00 0.00
5:53 am 05:53 Clear 47 8.3 43 6.1 86 86 SSE 8 13 30.28 1026 10 16 0.00 0.00
6:53 am 06:53 Clear 46 7.8 43 6.1 89 89 SSE 8 13 30.28 1026 10 16 0.00 0.00
7:53 am 07:53 Sunny 45 7.2 43 6.1 93 93 S 6 9 30.29 1026 10 16 0.00 0.00
8:53 am 08:53 Sunny 48 8.9 45 7.2 89 89 SSE 12 19 30.29 1026 10 16 0.00 0.00
9:53 am 09:53 Sunny 53 11.7 47 8.3 80 80 S 10 17 30.28 1025 10 16 0.00 0.00
10:53 am 10:53 Sunny 58 14.4 48 8.9 70 70 S 12 19 30.27 1025 10 16 0.00 0.00
11:53 am 11:53 Sunny 62 16.7 48 8.9 60 60 S 10 17 30.24 1024 10 16 0.00 0.00
12:53 pm 12:53 Sunny 65 18.3 48 8.9 54 54 S 10 17 30.21 1023 10 16 0.00 0.00
1:53 pm 13:53 Sunny 68 20 47 8.3 47 47 SSE 14 22 30.16 1022 10 16 0.00 0.00
2:53 pm 14:53 Sunny 70 21.1 46 7.8 42 42 SSW 13 20 30.13 1020 10 16 0.00 0.00
3:53 pm 15:53 Sunny 72 22.2 45 7.2 38 38 S 12 19 30.09 1019 10 16 0.00 0.00
4:53 pm 16:53 Sunny 72 22.2 47 8.3 41 41 S 13 20 30.07 1018 10 16 0.00 0.00
5:53 pm 17:53 Sunny 71 21.7 47 8.3 42 42 S 13 20 30.06 1018 10 16 0.00 0.00
6:53 pm 18:53 Sunny 69 20.6 48 8.9 47 47 S 12 19 30.06 1018 10 16 0.00 0.00
7:53 pm 19:53 Clear 65 18.3 48 8.9 54 54 S 9 15 30.06 1018 10 16 0.00 0.00
8:53 pm 20:53 Clear 60 15.6 49 9.4 67 67 S 8 13 30.07 1018 10 16 0.00 0.00
9:53 pm 21:53 Clear 58 14.4 48 8.9 70 70 S 7 11 30.08 1019 10 16 0.00 0.00
10:53 pm 22:53 Clear 58 14.4 49 9.4 72 72 S 9 15 30.06 1018 10 16 0.00 0.00
11:53 pm 23:53 Clear 56 13.3 49 9.4 77 77 S 8 13 30.04 1017 10 16 0.00 0.00

Powered by AerisWeather